User: anonymous   Login
Location: Roanoke
(37.2710°N, 79.9420°W)
Time: 23:31:34
(UTC-05:00)
Language:

FENGYUN 3A - Orbit

View from above orbital plane
View from above orbital plane
View from above satellite
View from above satellite

Ground track
Ground track

The orbit data is extracted from the following two-line orbital elements,

1 32958U 08026A   17052.90980243  .00000016  00000-0  26912-4 0  9994
2 32958  98.4218  87.2742 0008480 254.8221 105.2019 14.19650522452986
Epoch (UTC): 21 February 2017 21:50:06
Eccentricity: 0.0008480
inclination: 98.4218°
perigee height: 820 km
apogee height: 832 km
right ascension of ascending node: 87.2742°
argument of perigee: 254.8221°
revolutions per day: 14.19650522
mean anomaly at epoch: 105.2019°
orbit number at epoch: 45298

The dashed part of the orbit path shows where the satellite is in the earth's shadow,  

DLR